Satellite: NOAA-16
Catalog number: 26536
Epoch time:      11090.23496504
Element set:     243
Inclination:      099.1480 deg
RA of node:       119.1694 deg
Eccentricity:    0.0009828
Arg of perigee:   249.5525 deg
Mean anomaly:     110.4610 deg
Mean motion:   14.12603747 rev/day
Decay rate:      -1.52e-06 rev/day^2
Epoch rev:           54235
Checksum:              289

Satellite: NOAA-17
Catalog number: 27453
Epoch time:      11090.47796533
Element set:     237
Inclination:      098.3884 deg
RA of node:       133.7248 deg
Eccentricity:    0.0012029
Arg of perigee:   021.8305 deg
Mean anomaly:     338.3384 deg
Mean motion:   14.24251326 rev/day
Decay rate:       1.08e-06 rev/day^2
Epoch rev:           45559
Checksum:              306

Satellite: NOAA-18
Catalog number: 28654
Epoch time:      11090.40738435
Element set:     719
Inclination:      098.9881 deg
RA of node:       041.3945 deg
Eccentricity:    0.0013995
Arg of perigee:   327.1036 deg
Mean anomaly:     032.9250 deg
Mean motion:   14.11454412 rev/day
Decay rate:       3.79e-06 rev/day^2
Epoch rev:           30195
Checksum:              309

Satellite: NOAA-19
Catalog number: 33591
Epoch time:      11090.45833016
Element set:     912
Inclination:      098.8209 deg
RA of node:       031.9420 deg
Eccentricity:    0.0013847
Arg of perigee:   193.1950 deg
Mean anomaly:     166.8848 deg
Mean motion:   14.11146750 rev/day
Decay rate:       4.26e-06 rev/day^2
Epoch rev:           11042
Checksum:              291

/EX
SB KEPS @ AMSAT  $ORB11090.M
Orbital Elements  11090.MISC

HR AMSAT ORBITAL ELEMENTS FOR MANNED AND MISCELLANEOUS SATELLITES
FROM WA5QGD FORT WORTH,TX March 31, 2011
Send Subscribe/unsubscribe to KEPS at http://www.amsat.org/mailman/listinfo/kep
BID: ORB11090.M
TO ALL RADIO AMATEURS BT

Satellite: HUBBLE
Catalog number: 20580
Epoch time:      11089.34313701
Element set:     737
Inclination:      028.4694 deg
RA of node:       171.4456 deg
Eccentricity:    0.0003146
Arg of perigee:   006.2292 deg
Mean anomaly:     353.8428 deg
Mean motion:   15.01235407 rev/day
Decay rate:      1.099e-05 rev/day^2
Epoch rev:           94779
Checksum:              293

Satellite: ISS
Catalog number: 25544
Epoch time:      11090.89420299
Element set:     105
Inclination:      051.6463 deg
RA of node:       197.5289 deg
Eccentricity:    0.0002269
Arg of perigee:   044.2550 deg
Mean anomaly:     057.5836 deg
Mean motion:   15.72489204 rev/day
Decay rate:     3.9955e-04 rev/day^2
Epoch rev:           70873
Checksum:              324

Satellite: CO-58
Catalog number: 28895
Epoch time:      11090.69489959
Element set:     837
Inclination:      097.9780 deg
RA of node:       330.0326 deg
Eccentricity:    0.0019165
Arg of perigee:   104.5180 deg
Mean anomaly:     255.8195 deg
Mean motion:   14.60041740 rev/day
Decay rate:       5.03e-06 rev/day^2
Epoch rev:           28893
Checksum:              341

Satellite: FALCON
Catalog number: 30776
Epoch time:      11089.47258695
Element set:    0072
Inclination:      035.4323 deg
RA of node:       105.4975 deg
Eccentricity:    0.0000359
Arg of perigee:   087.9535 deg
Mean anomaly:     272.1221 deg
Mean motion:   15.04278714 rev/day
Decay rate:      1.966e-05 rev/day^2
Epoch rev:           22318
Checksum:              304

Satellite: MAST
Catalog number: 31126
Epoch time:      11089.91457985
Element set:    0122
Inclination:      097.9030 deg
RA of node:       121.5385 deg
Eccentricity:    0.0095451
Arg of perigee:   054.9600 deg
Mean anomaly:     306.0511 deg
Mean motion:   14.53698334 rev/day
Decay rate:       3.14e-06 rev/day^2
Epoch rev:           20971
Checksum:              284

Satellite: CAPE1
Catalog number: 31130
Epoch time:      11090.44757944
Element set:     140
Inclination:      097.9061 deg
RA of node:       118.9281 deg
Eccentricity:    0.0103654
Arg of perigee:   063.4445 deg
Mean anomaly:     297.7351 deg
Mean motion:   14.52325481 rev/day
Decay rate:       7.01e-06 rev/day^2
Epoch rev:           20935
Checksum:              281

Satellite: COMPASS
Catalog number: 32787
Epoch time:      11089.70679061
Element set:    0948
Inclination:      097.8539 deg
RA of node:       154.9663 deg
Eccentricity:    0.0016859
Arg of perigee:   073.1640 deg
Mean anomaly:     287.1397 deg
Mean motion:   14.82231942 rev/day
Decay rate:      1.136e-05 rev/day^2
Epoch rev:           15793
Checksum:              345

Satellite: AAUSAT2
Catalog number: 32788
Epoch time:      11089.74755040
Element set:    0938
Inclination:      097.8543 deg
RA of node:       155.2056 deg
Eccentricity:    0.0016398
Arg of perigee:   073.6321 deg
Mean anomaly:     286.6718 deg
Mean motion:   14.82403215 rev/day
Decay rate:      1.470e-05 rev/day^2
Epoch rev:           15795
Checksum:              325

Satellite: DO-64
Catalog number: 32789
Epoch time:      11089.71199605
Element set:    0956
Inclination:      097.8640 deg
RA of node:       156.0336 deg
Eccentricity:    0.0016424
Arg of perigee:   073.2815 deg
Mean anomaly:     287.0188 deg
Mean motion:   14.82748647 rev/day
Decay rate:      1.987e-05 rev/day^2
Epoch rev:           15795
Checksum:              363

